Time,TemperatureF,DewpointF,PressureIn,WindDirection,WindDirectionDegrees,WindSpeedMPH,WindSpeedGustMPH,Humidity,HourlyPrecipIn,Conditions,Clouds,dailyrainin,SoftwareType,DateUTC
2013-02-17 00:03:00,36.1,2.8,30.21,WSW,254,0.0,0.0,24,0.00,,,0.00,LWC V2.11 B50,2013-02-17 07:03:00,
2013-02-17 00:08:00,36.3,2.1,30.21,West,266,0.0,2.0,23,0.00,,,0.00,LWC V2.11 B50,2013-02-17 07:08:00,
2013-02-17 00:13:00,36.5,2.3,30.22,West,269,0.0,2.0,23,0.00,,,0.00,LWC V2.11 B50,2013-02-17 07:13:00,
2013-02-17 00:16:00,36.4,2.2,30.22,West,269,0.0,0.0,23,0.00,,,0.00,LWC V2.11 B50,2013-02-17 07:16:00,
2013-02-17 00:21:00,36.2,2.0,30.22,WNW,300,0.0,1.0,23,0.00,,,0.00,LWC V2.11 B50,2013-02-17 07:21:00,
2013-02-17 00:26:00,35.9,1.8,30.22,WNW,300,0.0,0.0,23,0.00,,,0.00,LWC V2.11 B50,2013-02-17 07:26:00,
2013-02-17 00:31:00,35.4,1.3,30.21,WNW,300,0.0,0.0,23,0.00,,,0.00,LWC V2.11 B50,2013-02-17 07:31:00,
2013-02-17 00:36:00,35.0,1.9,30.21,WNW,299,0.0,0.0,24,0.00,,,0.00,LWC V2.11 B50,2013-02-17 07:36:00,
2013-02-17 00:41:00,34.5,1.5,30.21,South,175,0.0,2.0,24,0.00,,,0.00,LWC V2.11 B50,2013-02-17 07:41:00,
2013-02-17 00:46:00,34.0,1.0,30.21,South,175,0.0,0.0,24,0.00,,,0.00,LWC V2.11 B50,2013-02-17 07:46:00,
2013-02-17 00:51:00,33.5,1.5,30.21,South,175,0.0,1.0,25,0.00,,,0.00,LWC V2.11 B50,2013-02-17 07:51:00,
2013-02-17 00:56:00,33.0,1.1,30.21,NNW,332,0.0,1.0,25,0.00,,,0.00,LWC V2.11 B50,2013-02-17 07:56:00,
2013-02-17 01:01:00,32.5,1.5,30.21,NNW,334,0.0,0.0,26,0.00,,,0.00,LWC V2.11 B50,2013-02-17 08:01:00,
2013-02-17 01:06:00,32.1,1.1,30.20,NNW,334,0.0,0.0,26,0.00,,,0.00,LWC V2.11 B50,2013-02-17 08:06:00,
2013-02-17 01:11:00,31.8,0.9,30.21,NNW,334,0.0,0.0,26,0.00,,,0.00,LWC V2.11 B50,2013-02-17 08:11:00,
2013-02-17 01:16:00,31.4,1.3,30.21,NNW,334,0.0,0.0,27,0.00,,,0.00,LWC V2.11 B50,2013-02-17 08:16:00,
2013-02-17 01:21:00,31.2,1.9,30.21,NNW,344,0.0,0.0,28,0.00,,,0.00,LWC V2.11 B50,2013-02-17 08:21:00,
2013-02-17 01:26:00,30.9,1.7,30.21,NNW,344,0.0,0.0,28,0.00,,,0.00,LWC V2.11 B50,2013-02-17 08:26:00,
2013-02-17 01:31:00,31.0,1.8,30.21,NNW,344,0.0,0.0,28,0.00,,,0.00,LWC V2.11 B50,2013-02-17 08:31:00,
2013-02-17 01:36:00,30.9,1.7,30.21,NNW,344,0.0,0.0,28,0.00,,,0.00,LWC V2.11 B50,2013-02-17 08:36:00,
2013-02-17 01:41:00,30.8,1.6,30.20,NNW,329,0.0,2.0,28,0.00,,,0.00,LWC V2.11 B50,2013-02-17 08:41:00,
2013-02-17 01:46:00,30.5,1.3,30.20,NNW,328,0.0,0.0,28,0.00,,,0.00,LWC V2.11 B50,2013-02-17 08:46:00,
2013-02-17 01:51:00,30.3,1.9,30.20,NNW,328,0.0,0.0,29,0.00,,,0.00,LWC V2.11 B50,2013-02-17 08:51:00,
2013-02-17 01:56:00,30.2,1.8,30.20,NNW,328,0.0,0.0,29,0.00,,,0.00,LWC V2.11 B50,2013-02-17 08:56:00,
2013-02-17 02:01:00,30.2,2.5,30.20,NNW,328,0.0,0.0,30,0.00,,,0.00,LWC V2.11 B50,2013-02-17 09:01:00,
2013-02-17 02:06:00,30.2,2.5,30.20,NNW,328,0.0,0.0,30,0.00,,,0.00,LWC V2.11 B50,2013-02-17 09:06:00,
2013-02-17 02:11:00,30.2,2.5,30.20,NNW,328,0.0,0.0,30,0.00,,,0.00,LWC V2.11 B50,2013-02-17 09:11:00,
2013-02-17 02:16:00,29.8,1.5,30.19,NNW,328,0.0,0.0,29,0.00,,,0.00,LWC V2.11 B50,2013-02-17 09:16:00,
2013-02-17 02:21:00,29.2,1.7,30.19,NNW,328,0.0,0.0,30,0.00,,,0.00,LWC V2.11 B50,2013-02-17 09:21:00,
2013-02-17 02:26:00,28.7,1.2,30.19,NNW,328,0.0,0.0,30,0.00,,,0.00,LWC V2.11 B50,2013-02-17 09:26:00,
2013-02-17 02:31:00,28.3,1.6,30.19,NNW,327,0.0,1.0,31,0.00,,,0.00,LWC V2.11 B50,2013-02-17 09:31:00,
2013-02-17 02:36:00,28.1,2.1,30.19,NNW,327,0.0,0.0,32,0.00,,,0.00,LWC V2.11 B50,2013-02-17 09:36:00,
2013-02-17 02:41:00,27.8,1.1,30.19,NNW,327,0.0,1.0,31,0.00,,,0.00,LWC V2.11 B50,2013-02-17 09:41:00,
2013-02-17 02:46:00,27.5,1.6,30.19,NNW,327,0.0,0.0,32,0.00,,,0.00,LWC V2.11 B50,2013-02-17 09:46:00,
2013-02-17 02:51:00,27.3,1.4,30.18,NNW,327,0.0,0.0,32,0.00,,,0.00,LWC V2.11 B50,2013-02-17 09:51:00,
2013-02-17 02:56:00,27.1,1.2,30.18,NNW,327,0.0,0.0,32,0.00,,,0.00,LWC V2.11 B50,2013-02-17 09:56:00,
2013-02-17 03:01:00,26.6,0.8,30.18,NNW,327,0.0,0.0,32,0.00,,,0.00,LWC V2.11 B50,2013-02-17 10:01:00,
2013-02-17 03:02:00,26.5,0.7,30.18,NNW,327,0.0,0.0,32,0.00,,,0.00,LWC V2.11 B50,2013-02-17 10:02:00,
2013-02-17 03:07:00,26.1,1.0,30.18,NNW,327,0.0,0.0,33,0.00,,,0.00,LWC V2.11 B50,2013-02-17 10:07:00,
2013-02-17 03:12:00,26.0,1.5,30.18,NNW,327,0.0,0.0,34,0.00,,,0.00,LWC V2.11 B50,2013-02-17 10:12:00,
2013-02-17 03:17:00,25.7,1.3,30.17,NNW,327,0.0,0.0,34,0.00,,,0.00,LWC V2.11 B50,2013-02-17 10:17:00,
2013-02-17 03:22:00,25.6,1.2,30.17,NNW,327,0.0,0.0,34,0.00,,,0.00,LWC V2.11 B50,2013-02-17 10:22:00,
2013-02-17 03:27:00,25.4,1.6,30.17,NNW,327,0.0,0.0,35,0.00,,,0.00,LWC V2.11 B50,2013-02-17 10:27:00,
2013-02-17 03:32:00,25.3,1.5,30.17,NNW,327,0.0,0.0,35,0.00,,,0.00,LWC V2.11 B50,2013-02-17 10:32:00,
2013-02-17 03:37:00,25.1,1.3,30.17,NNW,327,0.0,0.0,35,0.00,,,0.00,LWC V2.11 B50,2013-02-17 10:37:00,
2013-02-17 03:42:00,25.0,1.9,30.17,NNW,327,0.0,0.0,36,0.00,,,0.00,LWC V2.11 B50,2013-02-17 10:42:00,
2013-02-17 03:47:00,24.8,1.7,30.17,NNW,327,0.0,0.0,36,0.00,,,0.00,LWC V2.11 B50,2013-02-17 10:47:00,
2013-02-17 03:52:00,24.6,2.1,30.17,NNW,327,0.0,0.0,37,0.00,,,0.00,LWC V2.11 B50,2013-02-17 10:52:00,
2013-02-17 03:57:00,24.5,2.0,30.17,NNW,327,0.0,0.0,37,0.00,,,0.00,LWC V2.11 B50,2013-02-17 10:57:00,
2013-02-17 04:02:00,24.5,2.0,30.17,NNW,327,0.0,0.0,37,0.00,,,0.00,LWC V2.11 B50,2013-02-17 11:02:00,
2013-02-17 04:07:00,24.7,2.2,30.17,NNW,327,0.0,0.0,37,0.00,,,0.00,LWC V2.11 B50,2013-02-17 11:07:00,
2013-02-17 04:12:00,24.9,2.4,30.17,NNW,327,0.0,0.0,37,0.00,,,0.00,LWC V2.11 B50,2013-02-17 11:12:00,
2013-02-17 04:17:00,24.8,2.3,30.17,NNW,327,0.0,0.0,37,0.00,,,0.00,LWC V2.11 B50,2013-02-17 11:17:00,
2013-02-17 04:22:00,24.7,1.6,30.17,NNW,327,0.0,0.0,36,0.00,,,0.00,LWC V2.11 B50,2013-02-17 11:22:00,
2013-02-17 04:27:00,24.5,2.0,30.17,NNW,327,0.0,0.0,37,0.00,,,0.00,LWC V2.11 B50,2013-02-17 11:27:00,
2013-02-17 04:32:00,24.5,2.0,30.17,NNW,327,0.0,0.0,37,0.00,,,0.00,LWC V2.11 B50,2013-02-17 11:32:00,
2013-02-17 04:37:00,24.4,2.5,30.17,NNW,327,0.0,0.0,38,0.00,,,0.00,LWC V2.11 B50,2013-02-17 11:37:00,
2013-02-17 04:42:00,24.3,2.4,30.17,NNW,327,0.0,0.0,38,0.00,,,0.00,LWC V2.11 B50,2013-02-17 11:42:00,
2013-02-17 04:47:00,24.1,1.6,30.17,NNW,327,0.0,0.0,37,0.00,,,0.00,LWC V2.11 B50,2013-02-17 11:47:00,
2013-02-17 04:52:00,23.9,1.5,30.17,NNW,327,0.0,0.0,37,0.00,,,0.00,LWC V2.11 B50,2013-02-17 11:52:00,
2013-02-17 04:57:00,23.7,1.9,30.17,NNW,327,0.0,0.0,38,0.00,,,0.00,LWC V2.11 B50,2013-02-17 11:57:00,
2013-02-17 05:02:00,23.5,1.7,30.16,NNW,327,0.0,0.0,38,0.00,,,0.00,LWC V2.11 B50,2013-02-17 12:02:00,
2013-02-17 05:07:00,23.5,2.2,30.17,NNW,327,0.0,0.0,39,0.00,,,0.00,LWC V2.11 B50,2013-02-17 12:07:00,
2013-02-17 05:12:00,23.3,2.0,30.17,NNW,327,0.0,0.0,39,0.00,,,0.00,LWC V2.11 B50,2013-02-17 12:12:00,
2013-02-17 05:17:00,23.1,1.9,30.17,NNW,327,0.0,0.0,39,0.00,,,0.00,LWC V2.11 B50,2013-02-17 12:17:00,
2013-02-17 05:22:00,23.0,1.8,30.17,NNW,327,0.0,0.0,39,0.00,,,0.00,LWC V2.11 B50,2013-02-17 12:22:00,
2013-02-17 05:27:00,23.0,1.8,30.16,NNW,327,0.0,0.0,39,0.00,,,0.00,LWC V2.11 B50,2013-02-17 12:27:00,
2013-02-17 05:32:00,23.1,2.4,30.16,NNW,327,0.0,0.0,40,0.00,,,0.00,LWC V2.11 B50,2013-02-17 12:32:00,
2013-02-17 05:37:00,23.3,2.6,30.16,NNW,327,0.0,0.0,40,0.00,,,0.00,LWC V2.11 B50,2013-02-17 12:37:00,
2013-02-17 05:42:00,23.2,2.5,30.16,NNW,327,0.0,0.0,40,0.00,,,0.00,LWC V2.11 B50,2013-02-17 12:42:00,
2013-02-17 05:47:00,23.1,2.9,30.16,NNW,327,0.0,0.0,41,0.00,,,0.00,LWC V2.11 B50,2013-02-17 12:47:00,
2013-02-17 05:52:00,22.9,2.8,30.16,NNW,327,0.0,0.0,41,0.00,,,0.00,LWC V2.11 B50,2013-02-17 12:52:00,
2013-02-17 05:57:00,22.6,2.5,30.16,NNW,327,0.0,0.0,41,0.00,,,0.00,LWC V2.11 B50,2013-02-17 12:57:00,
2013-02-17 06:02:00,22.3,2.2,30.16,NNW,327,0.0,0.0,41,0.00,,,0.00,LWC V2.11 B50,2013-02-17 13:02:00,
2013-02-17 06:07:00,22.0,1.4,30.16,NNW,327,0.0,0.0,40,0.00,,,0.00,LWC V2.11 B50,2013-02-17 13:07:00,
2013-02-17 06:12:00,21.8,2.3,30.16,NNW,327,0.0,0.0,42,0.00,,,0.00,LWC V2.11 B50,2013-02-17 13:12:00,
2013-02-17 06:17:00,21.7,1.7,30.16,NNW,327,0.0,0.0,41,0.00,,,0.00,LWC V2.11 B50,2013-02-17 13:17:00,
2013-02-17 06:22:00,21.5,1.0,30.15,NNW,327,0.0,0.0,40,0.00,,,0.00,LWC V2.11 B50,2013-02-17 13:22:00,
2013-02-17 06:27:00,21.0,1.0,30.16,NNW,327,0.0,0.0,41,0.00,,,0.00,LWC V2.11 B50,2013-02-17 13:27:00,
2013-02-17 06:32:00,20.7,1.3,30.15,NNW,327,0.0,0.0,42,0.00,,,0.00,LWC V2.11 B50,2013-02-17 13:32:00,
2013-02-17 06:37:00,20.6,1.2,30.15,NNW,327,0.0,0.0,42,0.00,,,0.00,LWC V2.11 B50,2013-02-17 13:37:00,
2013-02-17 06:42:00,20.5,1.6,30.15,NNW,327,0.0,0.0,43,0.00,,,0.00,LWC V2.11 B50,2013-02-17 13:42:00,
2013-02-17 06:47:00,20.5,1.6,30.15,NNW,327,0.0,0.0,43,0.00,,,0.00,LWC V2.11 B50,2013-02-17 13:47:00,
2013-02-17 06:52:00,20.4,1.0,30.15,NNW,327,0.0,0.0,42,0.00,,,0.00,LWC V2.11 B50,2013-02-17 13:52:00,
2013-02-17 06:57:00,20.4,1.5,30.15,NNW,327,0.0,0.0,43,0.00,,,0.00,LWC V2.11 B50,2013-02-17 13:57:00,
2013-02-17 07:02:00,20.3,1.9,30.15,NNW,327,0.0,0.0,44,0.00,,,0.00,LWC V2.11 B50,2013-02-17 14:02:00,
2013-02-17 07:07:00,20.5,2.1,30.15,NNW,327,0.0,0.0,44,0.00,,,0.00,LWC V2.11 B50,2013-02-17 14:07:00,
2013-02-17 07:12:00,20.9,2.5,30.15,NNW,327,0.0,0.0,44,0.00,,,0.00,LWC V2.11 B50,2013-02-17 14:12:00,
2013-02-17 07:17:00,21.5,3.0,30.15,NNW,327,0.0,0.0,44,0.00,,,0.00,LWC V2.11 B50,2013-02-17 14:17:00,
2013-02-17 07:22:00,22.1,3.1,30.14,NNW,327,0.0,0.0,43,0.00,,,0.00,LWC V2.11 B50,2013-02-17 14:22:00,
2013-02-17 07:27:00,23.0,2.8,30.14,NNW,327,0.0,0.0,41,0.00,,,0.00,LWC V2.11 B50,2013-02-17 14:27:00,
2013-02-17 07:32:00,23.8,3.0,30.14,NNW,327,0.0,0.0,40,0.00,,,0.00,LWC V2.11 B50,2013-02-17 14:32:00,
2013-02-17 07:37:00,24.2,2.9,30.14,NNW,327,0.0,0.0,39,0.00,,,0.00,LWC V2.11 B50,2013-02-17 14:37:00,
2013-02-17 07:42:00,24.5,3.1,30.14,NNW,327,0.0,0.0,39,0.00,,,0.00,LWC V2.11 B50,2013-02-17 14:42:00,
2013-02-17 07:47:00,25.1,3.1,30.14,NNW,327,0.0,0.0,38,0.00,,,0.00,LWC V2.11 B50,2013-02-17 14:47:00,
2013-02-17 07:52:00,25.6,3.6,30.14,NNW,327,0.0,0.0,38,0.00,,,0.00,LWC V2.11 B50,2013-02-17 14:52:00,
2013-02-17 07:57:00,26.2,4.1,30.14,NNW,327,0.0,0.0,38,0.00,,,0.00,LWC V2.11 B50,2013-02-17 14:57:00,
2013-02-17 08:02:00,26.9,4.1,30.14,NNW,327,0.0,0.0,37,0.00,,,0.00,LWC V2.11 B50,2013-02-17 15:02:00,
2013-02-17 08:07:00,27.6,4.8,30.14,NNW,327,0.0,0.0,37,0.00,,,0.00,LWC V2.11 B50,2013-02-17 15:07:00,
2013-02-17 08:12:00,28.4,4.9,30.14,NNW,327,0.0,0.0,36,0.00,,,0.00,LWC V2.11 B50,2013-02-17 15:12:00,
2013-02-17 08:17:00,29.3,5.7,30.14,NNW,327,0.0,0.0,36,0.00,,,0.00,LWC V2.11 B50,2013-02-17 15:17:00,
2013-02-17 08:22:00,30.3,5.3,30.14,NNW,328,0.0,1.0,34,0.00,,,0.00,LWC V2.11 B50,2013-02-17 15:22:00,
2013-02-17 08:27:00,31.3,6.2,30.13,NNW,328,0.0,0.0,34,0.00,,,0.00,LWC V2.11 B50,2013-02-17 15:27:00,
2013-02-17 08:32:00,32.2,5.7,30.13,NNW,329,0.0,1.0,32,0.00,,,0.00,LWC V2.11 B50,2013-02-17 15:32:00,
2013-02-17 08:37:00,33.0,6.4,30.13,North,5,0.0,0.0,32,0.00,,,0.00,LWC V2.11 B50,2013-02-17 15:37:00,
2013-02-17 08:42:00,33.8,6.4,30.13,North,5,0.0,0.0,31,0.00,,,0.00,LWC V2.11 B50,2013-02-17 15:42:00,
2013-02-17 08:47:00,34.8,7.3,30.13,NE,49,0.0,1.0,31,0.00,,,0.00,LWC V2.11 B50,2013-02-17 15:47:00,
2013-02-17 08:52:00,35.9,6.8,30.13,SE,143,0.0,0.0,29,0.00,,,0.00,LWC V2.11 B50,2013-02-17 15:52:00,
2013-02-17 08:57:00,36.6,7.4,30.13,SSE,157,0.0,0.0,29,0.00,,,0.00,LWC V2.11 B50,2013-02-17 15:57:00,
2013-02-17 09:02:00,37.3,7.2,30.12,SSE,157,0.0,0.0,28,0.00,,,0.00,LWC V2.11 B50,2013-02-17 16:02:00,
2013-02-17 09:07:00,38.0,7.0,30.12,SSE,157,0.0,0.0,27,0.00,,,0.00,LWC V2.11 B50,2013-02-17 16:07:00,
2013-02-17 09:12:00,38.6,7.5,30.12,SSE,149,0.0,0.0,27,0.00,,,0.00,LWC V2.11 B50,2013-02-17 16:12:00,
2013-02-17 09:17:00,39.0,7.9,30.11,ESE,106,0.0,0.0,27,0.00,,,0.00,LWC V2.11 B50,2013-02-17 16:17:00,
2013-02-17 09:22:00,39.4,8.2,30.11,North,0,1.0,2.0,27,0.00,,,0.00,LWC V2.11 B50,2013-02-17 16:22:00,
2013-02-17 09:27:00,39.7,8.5,30.10,NNE,31,0.0,1.0,27,0.00,,,0.00,LWC V2.11 B50,2013-02-17 16:27:00,
2013-02-17 09:32:00,40.3,9.0,30.10,NE,46,1.0,1.0,27,0.00,,,0.00,LWC V2.11 B50,2013-02-17 16:32:00,
2013-02-17 09:37:00,41.0,9.6,30.09,North,9,0.0,2.0,27,0.00,,,0.00,LWC V2.11 B50,2013-02-17 16:37:00,
2013-02-17 09:42:00,41.7,9.4,30.09,NNE,28,0.0,3.0,26,0.00,,,0.00,LWC V2.11 B50,2013-02-17 16:42:00,
2013-02-17 09:47:00,42.3,9.9,30.09,NE,54,0.0,0.0,26,0.00,,,0.00,LWC V2.11 B50,2013-02-17 16:47:00,
2013-02-17 09:52:00,42.9,10.4,30.09,NE,51,1.0,3.0,26,0.00,,,0.00,LWC V2.11 B50,2013-02-17 16:52:00,
2013-02-17 09:57:00,43.7,11.1,30.08,ENE,72,1.0,1.0,26,0.00,,,0.00,LWC V2.11 B50,2013-02-17 16:57:00,
2013-02-17 10:02:00,44.4,10.8,30.08,ENE,74,1.0,4.0,25,0.00,,,0.00,LWC V2.11 B50,2013-02-17 17:02:00,
2013-02-17 10:07:00,44.6,11.0,30.08,ESE,113,0.0,2.0,25,0.00,,,0.00,LWC V2.11 B50,2013-02-17 17:07:00,
2013-02-17 10:12:00,45.1,10.5,30.08,SE,139,2.0,3.0,24,0.00,,,0.00,LWC V2.11 B50,2013-02-17 17:12:00,
2013-02-17 10:17:00,45.7,10.1,30.08,SE,124,0.0,0.0,23,0.00,,,0.00,LWC V2.11 B50,2013-02-17 17:17:00,
2013-02-17 10:22:00,46.2,11.4,30.07,ESE,121,0.0,1.0,24,0.00,,,0.00,LWC V2.11 B50,2013-02-17 17:22:00,
2013-02-17 10:27:00,47.0,10.2,30.07,South,171,0.0,1.0,22,0.00,,,0.00,LWC V2.11 B50,2013-02-17 17:27:00,
2013-02-17 10:33:00,47.6,10.7,30.07,SE,129,2.0,3.0,22,0.00,,,0.00,LWC V2.11 B50,2013-02-17 17:33:00,
2013-02-17 10:38:00,48.1,10.0,30.07,SSE,152,0.0,1.0,21,0.00,,,0.00,LWC V2.11 B50,2013-02-17 17:38:00,
2013-02-17 10:42:00,48.4,9.2,30.06,SE,128,1.0,2.0,20,0.00,,,0.00,LWC V2.11 B50,2013-02-17 17:42:00,
2013-02-17 10:47:00,48.6,9.4,30.06,ESE,104,0.0,0.0,20,0.00,,,0.00,LWC V2.11 B50,2013-02-17 17:47:00,
2013-02-17 10:52:00,48.8,9.5,30.05,SSW,195,1.0,2.0,20,0.00,,,0.00,LWC V2.11 B50,2013-02-17 17:52:00,
2013-02-17 10:58:00,48.9,8.5,30.05,SSW,194,0.0,3.0,19,0.00,,,0.00,LWC V2.11 B50,2013-02-17 17:58:00,
2013-02-17 11:03:00,49.0,8.6,30.05,SSW,194,0.0,3.0,19,0.00,,,0.00,LWC V2.11 B50,2013-02-17 18:03:00,
2013-02-17 11:07:00,49.3,8.8,30.04,SSW,198,2.0,4.0,19,0.00,,,0.00,LWC V2.11 B50,2013-02-17 18:07:00,
2013-02-17 11:12:00,49.3,7.6,30.04,SE,132,0.0,4.0,18,0.00,,,0.00,LWC V2.11 B50,2013-02-17 18:12:00,
2013-02-17 11:18:00,49.2,7.5,30.03,South,188,0.0,3.0,18,0.00,,,0.00,LWC V2.11 B50,2013-02-17 18:18:00,
2013-02-17 11:23:00,49.2,7.5,30.03,SSE,155,1.0,5.0,18,0.00,,,0.00,LWC V2.11 B50,2013-02-17 18:23:00,
2013-02-17 11:28:00,49.3,8.8,30.02,SE,136,0.0,1.0,19,0.00,,,0.00,LWC V2.11 B50,2013-02-17 18:28:00,
2013-02-17 11:33:00,49.7,9.1,30.01,SSW,195,0.0,2.0,19,0.00,,,0.00,LWC V2.11 B50,2013-02-17 18:33:00,
2013-02-17 11:38:00,50.0,8.2,30.01,South,190,1.0,2.0,18,0.00,,,0.00,LWC V2.11 B50,2013-02-17 18:38:00,
2013-02-17 11:43:00,50.3,8.4,30.01,SW,235,4.0,4.0,18,0.00,,,0.00,LWC V2.11 B50,2013-02-17 18:43:00,
2013-02-17 11:48:00,50.4,7.3,30.00,SSW,203,1.0,2.0,17,0.00,,,0.00,LWC V2.11 B50,2013-02-17 18:48:00,
2013-02-17 11:53:00,50.8,7.6,30.00,South,181,2.0,4.0,17,0.00,,,0.00,LWC V2.11 B50,2013-02-17 18:53:00,
2013-02-17 11:58:00,50.9,7.7,29.99,SE,129,2.0,4.0,17,0.00,,,0.00,LWC V2.11 B50,2013-02-17 18:58:00,
2013-02-17 12:03:00,51.2,9.2,29.99,SSW,196,0.0,3.0,18,0.00,,,0.00,LWC V2.11 B50,2013-02-17 19:03:00,
2013-02-17 12:08:00,51.7,7.0,29.98,SSW,192,1.0,8.0,16,0.00,,,0.00,LWC V2.11 B50,2013-02-17 19:08:00,
2013-02-17 12:13:00,51.7,8.3,29.98,SSW,193,2.0,3.0,17,0.00,,,0.00,LWC V2.11 B50,2013-02-17 19:13:00,
2013-02-17 12:18:00,52.2,7.4,29.98,SSW,194,2.0,2.0,16,0.00,,,0.00,LWC V2.11 B50,2013-02-17 19:18:00,
2013-02-17 12:23:00,52.5,7.6,29.97,SSW,195,0.0,3.0,16,0.00,,,0.00,LWC V2.11 B50,2013-02-17 19:23:00,
2013-02-17 12:28:00,53.0,6.6,29.96,SSE,163,1.0,3.0,15,0.00,,,0.00,LWC V2.11 B50,2013-02-17 19:28:00,
2013-02-17 12:33:00,53.2,8.2,29.95,SSW,194,2.0,4.0,16,0.00,,,0.00,LWC V2.11 B50,2013-02-17 19:33:00,
2013-02-17 12:38:00,53.5,7.0,29.95,SSE,167,0.0,5.0,15,0.00,,,0.00,LWC V2.11 B50,2013-02-17 19:38:00,
2013-02-17 12:43:00,53.9,7.3,29.94,SSE,167,0.0,4.0,15,0.00,,,0.00,LWC V2.11 B50,2013-02-17 19:43:00,
2013-02-17 12:48:00,54.4,7.7,29.94,SSW,193,5.0,6.0,15,0.00,,,0.00,LWC V2.11 B50,2013-02-17 19:48:00,
2013-02-17 12:53:00,54.8,8.1,29.93,SSW,193,1.0,5.0,15,0.00,,,0.00,LWC V2.11 B50,2013-02-17 19:53:00,
2013-02-17 12:58:00,55.4,8.5,29.93,South,178,2.0,3.0,15,0.00,,,0.00,LWC V2.11 B50,2013-02-17 19:58:00,
2013-02-17 13:03:00,55.7,7.3,29.92,SSE,157,1.0,4.0,14,0.00,,,0.00,LWC V2.11 B50,2013-02-17 20:03:00,
2013-02-17 13:08:00,55.9,7.4,29.92,WNW,284,0.0,1.0,14,0.00,,,0.00,LWC V2.11 B50,2013-02-17 20:08:00,
2013-02-17 13:13:00,56.2,6.0,29.92,East,84,0.0,5.0,13,0.00,,,0.00,LWC V2.11 B50,2013-02-17 20:13:00,
2013-02-17 13:18:00,56.6,6.4,29.92,SE,142,6.0,6.0,13,0.00,,,0.00,LWC V2.11 B50,2013-02-17 20:18:00,
2013-02-17 13:23:00,56.6,6.4,29.91,SE,141,4.0,7.0,13,0.00,,,0.00,LWC V2.11 B50,2013-02-17 20:23:00,
2013-02-17 13:28:00,56.4,4.4,29.91,SSE,166,3.0,3.0,12,0.00,,,0.00,LWC V2.11 B50,2013-02-17 20:28:00,
2013-02-17 13:33:00,56.4,6.2,29.90,SSW,197,2.0,7.0,13,0.00,,,0.00,LWC V2.11 B50,2013-02-17 20:33:00,
2013-02-17 13:38:00,56.9,4.8,29.90,South,181,1.0,3.0,12,0.00,,,0.00,LWC V2.11 B50,2013-02-17 20:38:00,
2013-02-17 13:43:00,57.0,4.9,29.89,SSE,151,1.0,9.0,12,0.00,,,0.00,LWC V2.11 B50,2013-02-17 20:43:00,
2013-02-17 13:48:00,56.4,4.4,29.89,South,188,7.0,7.0,12,0.00,,,0.00,LWC V2.11 B50,2013-02-17 20:48:00,
2013-02-17 13:53:00,57.0,4.9,29.88,SSE,161,4.0,4.0,12,0.00,,,0.00,LWC V2.11 B50,2013-02-17 20:53:00,
2013-02-17 13:58:00,57.6,3.5,29.87,South,181,0.0,7.0,11,0.00,,,0.00,LWC V2.11 B50,2013-02-17 20:58:00,
2013-02-17 14:03:00,58.2,4.0,29.87,SSW,196,0.0,2.0,11,0.00,,,0.00,LWC V2.11 B50,2013-02-17 21:03:00,
2013-02-17 14:08:00,58.8,4.4,29.86,SSE,163,2.0,5.0,11,0.00,,,0.00,LWC V2.11 B50,2013-02-17 21:08:00,
2013-02-17 14:13:00,59.1,4.7,29.86,SSW,206,4.0,7.0,11,0.00,,,0.00,LWC V2.11 B50,2013-02-17 21:13:00,
2013-02-17 14:18:00,59.2,4.7,29.85,South,173,2.0,8.0,11,0.00,,,0.00,LWC V2.11 B50,2013-02-17 21:18:00,
2013-02-17 14:23:00,58.8,4.4,29.85,SSW,211,6.0,7.0,11,0.00,,,0.00,LWC V2.11 B50,2013-02-17 21:23:00,
2013-02-17 14:28:00,58.9,4.5,29.84,South,173,7.0,10.0,11,0.00,,,0.00,LWC V2.11 B50,2013-02-17 21:28:00,
2013-02-17 14:33:00,58.7,4.4,29.84,South,188,7.0,8.0,11,0.00,,,0.00,LWC V2.11 B50,2013-02-17 21:33:00,
2013-02-17 14:38:00,58.7,4.4,29.84,SSW,200,2.0,7.0,11,0.00,,,0.00,LWC V2.11 B50,2013-02-17 21:38:00,
2013-02-17 14:43:00,58.6,4.3,29.84,SSE,168,3.0,7.0,11,0.00,,,0.00,LWC V2.11 B50,2013-02-17 21:43:00,
2013-02-17 14:48:00,58.5,4.2,29.83,SSW,192,4.0,5.0,11,0.00,,,0.00,LWC V2.11 B50,2013-02-17 21:48:00,
2013-02-17 14:53:00,58.4,4.1,29.83,South,187,3.0,6.0,11,0.00,,,0.00,LWC V2.11 B50,2013-02-17 21:53:00,
2013-02-17 14:58:00,58.6,4.3,29.82,South,182,4.0,4.0,11,0.00,,,0.00,LWC V2.11 B50,2013-02-17 21:58:00,
2013-02-17 15:03:00,59.1,4.7,29.82,SSW,211,1.0,8.0,11,0.00,,,0.00,LWC V2.11 B50,2013-02-17 22:03:00,
2013-02-17 15:08:00,59.3,2.8,29.82,WSW,241,1.0,7.0,10,0.00,,,0.00,LWC V2.11 B50,2013-02-17 22:08:00,
2013-02-17 15:13:00,59.6,3.0,29.82,SSW,205,2.0,5.0,10,0.00,,,0.00,LWC V2.11 B50,2013-02-17 22:13:00,
2013-02-17 15:18:00,59.6,3.0,29.82,SW,217,6.0,10.0,10,0.00,,,0.00,LWC V2.11 B50,2013-02-17 22:18:00,
2013-02-17 15:23:00,59.4,2.8,29.81,SW,223,3.0,9.0,10,0.00,,,0.00,LWC V2.11 B50,2013-02-17 22:23:00,
2013-02-17 15:28:00,59.4,2.8,29.81,SSW,196,6.0,7.0,10,0.00,,,0.00,LWC V2.11 B50,2013-02-17 22:28:00,
2013-02-17 15:33:00,59.6,3.0,29.81,SW,217,4.0,7.0,10,0.00,,,0.00,LWC V2.11 B50,2013-02-17 22:33:00,
2013-02-17 15:38:00,59.9,3.2,29.81,WSW,237,0.0,7.0,10,0.00,,,0.00,LWC V2.11 B50,2013-02-17 22:38:00,
2013-02-17 15:43:00,60.0,3.3,29.81,SSW,193,4.0,8.0,10,0.00,,,0.00,LWC V2.11 B50,2013-02-17 22:43:00,
2013-02-17 15:48:00,60.1,3.4,29.80,SSW,196,3.0,6.0,10,0.00,,,0.00,LWC V2.11 B50,2013-02-17 22:48:00,
2013-02-17 15:53:00,60.0,3.3,29.80,SSW,204,0.0,3.0,10,0.00,,,0.00,LWC V2.11 B50,2013-02-17 22:53:00,
2013-02-17 15:58:00,60.0,3.3,29.80,South,176,3.0,3.0,10,0.00,,,0.00,LWC V2.11 B50,2013-02-17 22:58:00,
2013-02-17 16:03:00,59.8,3.1,29.80,South,190,2.0,7.0,10,0.00,,,0.00,LWC V2.11 B50,2013-02-17 23:03:00,
2013-02-17 16:08:00,59.8,3.1,29.79,South,184,6.0,7.0,10,0.00,,,0.00,LWC V2.11 B50,2013-02-17 23:08:00,
2013-02-17 16:13:00,59.8,3.1,29.79,SSW,197,4.0,7.0,10,0.00,,,0.00,LWC V2.11 B50,2013-02-17 23:13:00,
2013-02-17 16:18:00,59.6,3.0,29.79,SW,233,1.0,4.0,10,0.00,,,0.00,LWC V2.11 B50,2013-02-17 23:18:00,
2013-02-17 16:23:00,59.6,3.0,29.78,SSW,211,2.0,7.0,10,0.00,,,0.00,LWC V2.11 B50,2013-02-17 23:23:00,
2013-02-17 16:28:00,59.6,3.0,29.78,SSW,209,2.0,7.0,10,0.00,,,0.00,LWC V2.11 B50,2013-02-17 23:28:00,
2013-02-17 16:33:00,59.6,3.0,29.78,South,179,0.0,2.0,10,0.00,,,0.00,LWC V2.11 B50,2013-02-17 23:33:00,
2013-02-17 16:38:00,59.6,3.0,29.78,SW,223,0.0,4.0,10,0.00,,,0.00,LWC V2.11 B50,2013-02-17 23:38:00,
2013-02-17 16:43:00,59.6,3.0,29.78,South,183,4.0,4.0,10,0.00,,,0.00,LWC V2.11 B50,2013-02-17 23:43:00,
2013-02-17 16:48:00,59.6,3.0,29.78,South,185,0.0,4.0,10,0.00,,,0.00,LWC V2.11 B50,2013-02-17 23:48:00,
2013-02-17 16:53:00,59.6,3.0,29.77,SSW,207,1.0,4.0,10,0.00,,,0.00,LWC V2.11 B50,2013-02-17 23:53:00,
2013-02-17 16:58:00,59.6,3.0,29.77,South,184,1.0,3.0,10,0.00,,,0.00,LWC V2.11 B50,2013-02-17 23:58:00,
2013-02-17 17:03:00,59.6,3.0,29.77,SSW,205,0.0,2.0,10,0.00,,,0.00,LWC V2.11 B50,2013-02-18 00:03:00,
2013-02-17 17:08:00,59.5,2.9,29.77,SW,219,3.0,5.0,10,0.00,,,0.00,LWC V2.11 B50,2013-02-18 00:08:00,
2013-02-17 17:13:00,59.4,2.8,29.77,SSW,193,1.0,3.0,10,0.00,,,0.00,LWC V2.11 B50,2013-02-18 00:13:00,
2013-02-17 17:18:00,59.3,2.8,29.76,South,185,3.0,5.0,10,0.00,,,0.00,LWC V2.11 B50,2013-02-18 00:18:00,
2013-02-17 17:23:00,59.1,2.6,29.76,SSW,194,2.0,4.0,10,0.00,,,0.00,LWC V2.11 B50,2013-02-18 00:23:00,
2013-02-17 17:28:00,58.8,2.4,29.76,SSE,147,4.0,4.0,10,0.00,,,0.00,LWC V2.11 B50,2013-02-18 00:28:00,
2013-02-17 17:33:00,58.5,2.1,29.76,South,182,0.0,4.0,10,0.00,,,0.00,LWC V2.11 B50,2013-02-18 00:33:00,
2013-02-17 17:37:00,58.3,2.0,29.76,SSE,156,2.0,2.0,10,0.00,,,0.00,LWC V2.11 B50,2013-02-18 00:37:00,
2013-02-17 17:42:00,57.9,3.7,29.76,South,180,0.0,2.0,11,0.00,,,0.00,LWC V2.11 B50,2013-02-18 00:42:00,
2013-02-17 17:47:00,57.6,3.5,29.76,South,181,0.0,1.0,11,0.00,,,0.00,LWC V2.11 B50,2013-02-18 00:47:00,
2013-02-17 17:52:00,57.2,3.2,29.76,South,188,0.0,0.0,11,0.00,,,0.00,LWC V2.11 B50,2013-02-18 00:52:00,
2013-02-17 17:57:00,56.6,2.7,29.76,South,188,0.0,0.0,11,0.00,,,0.00,LWC V2.11 B50,2013-02-18 00:57:00,
2013-02-17 18:02:00,56.0,4.1,29.76,South,188,0.0,0.0,12,0.00,,,0.00,LWC V2.11 B50,2013-02-18 01:02:00,
2013-02-17 18:07:00,55.2,3.5,29.76,South,188,0.0,0.0,12,0.00,,,0.00,LWC V2.11 B50,2013-02-18 01:07:00,
2013-02-17 18:12:00,54.4,2.9,29.76,South,188,0.0,0.0,12,0.00,,,0.00,LWC V2.11 B50,2013-02-18 01:12:00,
2013-02-17 18:17:00,53.3,2.0,29.76,South,188,0.0,0.0,12,0.00,,,0.00,LWC V2.11 B50,2013-02-18 01:17:00,
2013-02-17 18:22:00,51.9,0.9,29.77,WNW,287,4.0,9.0,12,0.00,,,0.00,LWC V2.11 B50,2013-02-18 01:22:00,
2013-02-17 18:27:00,52.7,3.3,29.78,West,281,5.0,5.0,13,0.00,,,0.00,LWC V2.11 B50,2013-02-18 01:27:00,
2013-02-17 18:32:00,53.7,2.3,29.78,West,273,1.0,4.0,12,0.00,,,0.00,LWC V2.11 B50,2013-02-18 01:32:00,
2013-02-17 18:37:00,53.9,2.5,29.78,West,280,2.0,5.0,12,0.00,,,0.00,LWC V2.11 B50,2013-02-18 01:37:00,
2013-02-17 18:42:00,54.4,2.9,29.78,West,275,3.0,4.0,12,0.00,,,0.00,LWC V2.11 B50,2013-02-18 01:42:00,
2013-02-17 18:47:00,54.4,2.9,29.78,West,275,0.0,3.0,12,0.00,,,0.00,LWC V2.11 B50,2013-02-18 01:47:00,
2013-02-17 18:52:00,54.2,2.7,29.79,West,274,4.0,6.0,12,0.00,,,0.00,LWC V2.11 B50,2013-02-18 01:52:00,
2013-02-17 18:57:00,53.9,2.5,29.79,WNW,286,6.0,6.0,12,0.00,,,0.00,LWC V2.11 B50,2013-02-18 01:57:00,
2013-02-17 19:02:00,53.4,3.8,29.79,WNW,293,4.0,6.0,13,0.00,,,0.00,LWC V2.11 B50,2013-02-18 02:02:00,
2013-02-17 19:07:00,53.0,3.5,29.79,WNW,297,2.0,6.0,13,0.00,,,0.00,LWC V2.11 B50,2013-02-18 02:07:00,
2013-02-17 19:12:00,52.4,3.0,29.79,WNW,303,4.0,5.0,13,0.00,,,0.00,LWC V2.11 B50,2013-02-18 02:12:00,
2013-02-17 19:17:00,52.2,2.9,29.79,West,279,1.0,5.0,13,0.00,,,0.00,LWC V2.11 B50,2013-02-18 02:17:00,
2013-02-17 19:22:00,52.2,4.5,29.79,West,279,0.0,3.0,14,0.00,,,0.00,LWC V2.11 B50,2013-02-18 02:22:00,
2013-02-17 19:27:00,52.2,4.5,29.79,WNW,283,2.0,5.0,14,0.00,,,0.00,LWC V2.11 B50,2013-02-18 02:27:00,
2013-02-17 19:32:00,52.1,4.4,29.80,West,276,3.0,5.0,14,0.00,,,0.00,LWC V2.11 B50,2013-02-18 02:32:00,
2013-02-17 19:37:00,51.5,3.9,29.80,West,277,3.0,5.0,14,0.00,,,0.00,LWC V2.11 B50,2013-02-18 02:37:00,
2013-02-17 19:42:00,50.9,4.9,29.80,WNW,283,1.0,1.0,15,0.00,,,0.00,LWC V2.11 B50,2013-02-18 02:42:00,
2013-02-17 19:47:00,50.2,4.4,29.80,NW,311,3.0,5.0,15,0.00,,,0.00,LWC V2.11 B50,2013-02-18 02:47:00,
2013-02-17 19:52:00,50.3,5.8,29.80,NW,304,4.0,7.0,16,0.00,,,0.00,LWC V2.11 B50,2013-02-18 02:52:00,
2013-02-17 19:57:00,51.2,5.2,29.80,West,269,4.0,7.0,15,0.00,,,0.00,LWC V2.11 B50,2013-02-18 02:57:00,
2013-02-17 20:02:00,51.6,5.5,29.80,WSW,258,1.0,7.0,15,0.00,,,0.00,LWC V2.11 B50,2013-02-18 03:02:00,
2013-02-17 20:07:00,51.4,5.3,29.80,West,270,3.0,4.0,15,0.00,,,0.00,LWC V2.11 B50,2013-02-18 03:07:00,
2013-02-17 20:12:00,51.0,5.0,29.80,West,277,3.0,5.0,15,0.00,,,0.00,LWC V2.11 B50,2013-02-18 03:12:00,
2013-02-17 20:17:00,50.6,4.7,29.81,West,265,5.0,5.0,15,0.00,,,0.00,LWC V2.11 B50,2013-02-18 03:17:00,
2013-02-17 20:22:00,50.1,4.3,29.81,West,266,1.0,5.0,15,0.00,,,0.00,LWC V2.11 B50,2013-02-18 03:22:00,
2013-02-17 20:27:00,50.2,5.8,29.81,WNW,282,1.0,6.0,16,0.00,,,0.00,LWC V2.11 B50,2013-02-18 03:27:00,
2013-02-17 20:32:00,50.6,4.7,29.81,West,275,1.0,6.0,15,0.00,,,0.00,LWC V2.11 B50,2013-02-18 03:32:00,
2013-02-17 20:37:00,50.5,4.6,29.81,West,270,0.0,5.0,15,0.00,,,0.00,LWC V2.11 B50,2013-02-18 03:37:00,
2013-02-17 20:42:00,50.1,4.3,29.82,West,273,5.0,6.0,15,0.00,,,0.00,LWC V2.11 B50,2013-02-18 03:42:00,
2013-02-17 20:47:00,49.9,5.5,29.82,WNW,299,3.0,4.0,16,0.00,,,0.00,LWC V2.11 B50,2013-02-18 03:47:00,
2013-02-17 20:52:00,50.1,5.7,29.82,West,264,5.0,11.0,16,0.00,,,0.00,LWC V2.11 B50,2013-02-18 03:52:00,
2013-02-17 20:57:00,50.4,5.9,29.82,WNW,287,5.0,8.0,16,0.00,,,0.00,LWC V2.11 B50,2013-02-18 03:57:00,
2013-02-17 21:02:00,50.6,6.1,29.82,WNW,284,4.0,9.0,16,0.00,,,0.00,LWC V2.11 B50,2013-02-18 04:02:00,
2013-02-17 21:07:00,50.5,6.0,29.82,WNW,292,4.0,10.0,16,0.00,,,0.00,LWC V2.11 B50,2013-02-18 04:07:00,
2013-02-17 21:12:00,50.4,5.9,29.82,WNW,289,4.0,7.0,16,0.00,,,0.00,LWC V2.11 B50,2013-02-18 04:12:00,
2013-02-17 21:17:00,50.0,5.6,29.82,West,277,4.0,8.0,16,0.00,,,0.00,LWC V2.11 B50,2013-02-18 04:17:00,
2013-02-17 21:22:00,49.7,6.7,29.82,WNW,284,2.0,10.0,17,0.00,,,0.00,LWC V2.11 B50,2013-02-18 04:22:00,
2013-02-17 21:27:00,49.4,6.4,29.82,WNW,294,3.0,5.0,17,0.00,,,0.00,LWC V2.11 B50,2013-02-18 04:27:00,
2013-02-17 21:32:00,49.2,7.5,29.82,NW,323,3.0,4.0,18,0.00,,,0.00,LWC V2.11 B50,2013-02-18 04:32:00,
2013-02-17 21:37:00,49.4,7.7,29.83,WNW,296,4.0,7.0,18,0.00,,,0.00,LWC V2.11 B50,2013-02-18 04:37:00,
2013-02-17 21:42:00,49.6,7.9,29.83,WNW,301,3.0,7.0,18,0.00,,,0.00,LWC V2.11 B50,2013-02-18 04:42:00,
2013-02-17 21:47:00,49.7,7.9,29.83,West,269,2.0,7.0,18,0.00,,,0.00,LWC V2.11 B50,2013-02-18 04:47:00,
2013-02-17 21:52:00,49.6,7.9,29.83,West,277,0.0,7.0,18,0.00,,,0.00,LWC V2.11 B50,2013-02-18 04:52:00,
2013-02-17 21:57:00,49.4,7.7,29.83,WNW,289,1.0,9.0,18,0.00,,,0.00,LWC V2.11 B50,2013-02-18 04:57:00,
2013-02-17 22:00:00,49.4,7.7,29.83,WNW,282,4.0,6.0,18,0.00,,,0.00,LWC V2.11 B50,2013-02-18 05:00:00,
2013-02-17 22:05:00,49.1,7.5,29.83,WSW,245,1.0,5.0,18,0.00,,,0.00,LWC V2.11 B50,2013-02-18 05:05:00,
2013-02-17 22:10:00,48.9,7.3,29.83,West,275,4.0,5.0,18,0.00,,,0.00,LWC V2.11 B50,2013-02-18 05:10:00,
2013-02-17 22:15:00,48.7,7.1,29.83,West,264,4.0,9.0,18,0.00,,,0.00,LWC V2.11 B50,2013-02-18 05:15:00,
2013-02-17 22:20:00,48.4,8.1,29.83,West,275,1.0,8.0,19,0.00,,,0.00,LWC V2.11 B50,2013-02-18 05:20:00,
2013-02-17 22:25:00,48.3,8.0,29.83,West,272,3.0,11.0,19,0.00,,,0.00,LWC V2.11 B50,2013-02-18 05:25:00,
2013-02-17 22:30:00,48.3,8.0,29.84,West,261,4.0,9.0,19,0.00,,,0.00,LWC V2.11 B50,2013-02-18 05:30:00,
2013-02-17 22:35:00,48.2,9.0,29.84,WNW,298,3.0,9.0,20,0.00,,,0.00,LWC V2.11 B50,2013-02-18 05:35:00,
2013-02-17 22:40:00,48.1,9.0,29.84,West,263,5.0,12.0,20,0.00,,,0.00,LWC V2.11 B50,2013-02-18 05:40:00,
2013-02-17 22:45:00,48.1,9.0,29.84,WNW,292,8.0,8.0,20,0.00,,,0.00,LWC V2.11 B50,2013-02-18 05:45:00,
2013-02-17 22:50:00,48.1,9.0,29.84,WSW,244,4.0,9.0,20,0.00,,,0.00,LWC V2.11 B50,2013-02-18 05:50:00,
2013-02-17 22:55:00,48.2,9.0,29.85,WNW,294,4.0,7.0,20,0.00,,,0.00,LWC V2.11 B50,2013-02-18 05:55:00,
2013-02-17 23:00:00,48.1,9.0,29.85,West,279,4.0,8.0,20,0.00,,,0.00,LWC V2.11 B50,2013-02-18 06:00:00,
2013-02-17 23:05:00,48.0,8.9,29.84,West,269,3.0,12.0,20,0.00,,,0.00,LWC V2.11 B50,2013-02-18 06:05:00,
2013-02-17 23:10:00,47.9,8.8,29.84,West,270,3.0,14.0,20,0.00,,,0.00,LWC V2.11 B50,2013-02-18 06:10:00,
2013-02-17 23:15:00,47.8,8.7,29.85,West,259,0.0,6.0,20,0.00,,,0.00,LWC V2.11 B50,2013-02-18 06:15:00,
2013-02-17 23:20:00,47.3,9.4,29.85,NW,306,0.0,8.0,21,0.00,,,0.00,LWC V2.11 B50,2013-02-18 06:20:00,
2013-02-17 23:25:00,46.9,9.0,29.85,SW,229,2.0,10.0,21,0.00,,,0.00,LWC V2.11 B50,2013-02-18 06:25:00,
2013-02-17 23:30:00,46.7,8.9,29.85,West,278,2.0,4.0,21,0.00,,,0.00,LWC V2.11 B50,2013-02-18 06:30:00,
2013-02-17 23:35:00,46.5,9.7,29.84,West,260,0.0,6.0,22,0.00,,,0.00,LWC V2.11 B50,2013-02-18 06:35:00,
2013-02-17 23:40:00,46.4,9.6,29.85,North,0,2.0,2.0,22,0.00,,,0.00,LWC V2.11 B50,2013-02-18 06:40:00,
2013-02-17 23:45:00,46.1,9.4,29.85,WSW,248,0.0,5.0,22,0.00,,,0.00,LWC V2.11 B50,2013-02-18 06:45:00,
2013-02-17 23:50:00,45.9,9.2,29.85,WNW,287,1.0,7.0,22,0.00,,,0.00,LWC V2.11 B50,2013-02-18 06:50:00,
2013-02-17 23:55:00,45.7,9.1,29.85,West,263,2.0,5.0,22,0.00,,,0.00,LWC V2.11 B50,2013-02-18 06:55:00,